Tracking 29892 objects as of 21-Nov-2024
HD Live streaming from Space Station
objects crossing your sky now

STARLINK-3276

Track STARLINK-3276 now!
10-day predictions
STARLINK-3276 is classified as:


NORAD ID: 50189
Int'l Code: 2021-125AK
Perigee: 545.8 km
Apogee: 548.1 km
Inclination: 53.2 °
Period: 95.4 minutes
Semi major axis: 6917 km
RCS: Unknown
Launch date: December 18, 2021
Source: United States (US)
Launch site: AIR FORCE WESTERN TEST RANGE (AFWTR)
Your satellite tracking list
Your tracking list is empty




NASA's NSSDC Master Catalog

Two Line Element Set (TLE):
1 50189U 21125AK  24326.10558201  .00003851  00000-0  26003-3 0  9994
2 50189  53.2185 215.1280 0001694  94.8668 265.2517 15.08821162164620
Source of the keplerian elements: AFSPC